FW9021 Weather Reports


Display with metric or nautical units.
time (UTC)temp
F
wind
direction
speed
MPH
gust
MPH
rain 1hr
in
rain 24hr
in
rain mn
in
humidity
%
barometer
mb
20260507124551 60 337 1.0 3.0 0.05 1.75 0.65 84 1010.3
20260507124038 60 0 1.0 4.0 0.06 1.75 0.65 84 1010.4
20260507123538 60 17 1.0 4.0 0.08 1.75 0.65 84 1010.5
20260507123051 60 0 0.0 3.0 0.09 1.75 0.65 84 1010.7
20260507122538 60 0 1.0 3.0 0.10 1.74 0.64 84 1010.7
20260507122038 60 344 0.0 4.0 0.09 1.73 0.63 84 1010.7
20260507121549 60 300 2.0 4.0 0.09 1.72 0.62 84 1011.2
20260507121039 60 290 3.0 7.0 0.09 1.72 0.62 84 1011.5
20260507120538 60 284 2.0 7.0 0.08 1.71 0.61 84 1011.2
20260507120047 61 305 5.0 7.0 0.09 1.71 0.61 84 1011.2
20260507115539 60 257 1.0 5.0 0.09 1.71 0.61 84 1010.8
20260507115038 60 252 1.0 4.0 0.10 1.71 0.61 84 1010.6
20260507114547 60 271 1.0 4.0 0.10 1.70 0.60 84 1010.7
20260507114038 60 340 1.0 3.0 0.09 1.69 0.58 84 1010.4
20260507113539 60 0 1.0 3.0 0.08 1.67 0.57 84 1010.2
20260507113044 60 277 1.0 3.0 0.06 1.65 0.55 84 1010.5
20260507112538 60 264 2.0 4.0 0.06 1.64 0.54 84 1010.3
20260507112037 60 294 2.0 4.0 0.06 1.63 0.52 84 1010.3
20260507111547 60 319 2.0 4.0 0.07 1.63 0.52 84 1010.2
20260507111038 60 123 1.0 2.0 0.09 1.63 0.52 84 1009.8
20260507110539 60 123 0.0 2.0 0.12 1.63 0.52 84 1009.9
20260507110055 60 0 0.0 3.0 0.13 1.62 0.52 84 1010.0
20260507105537 60 123 1.0 3.0 0.13 1.62 0.52 84 1009.8
20260507105037 60 123 1.0 3.0 0.12 1.61 0.51 85 1009.8
20260507104547 60 0 1.0 3.0 0.11 1.60 0.50 84 1010.4
20260507104039 60 0 0.0 3.0 0.10 1.59 0.49 84 1010.6
20260507103539 60 0 0.0 3.0 0.11 1.59 0.49 85 1010.4
20260507103046 60 195 0.0 2.0 0.11 1.59 0.49 85 1010.5
20260507102538 60 126 0.0 5.0 0.10 1.58 0.48 85 1010.0
20260507102038 60 0 1.0 5.0 0.12 1.57 0.47 85 1010.3
20260507101544 60 61 2.0 8.0 0.12 1.56 0.46 84 1010.0
20260507101038 60 330 2.0 8.0 0.10 1.54 0.44 85 1011.0
20260507100538 60 265 4.0 8.0 0.07 1.51 0.41 85 1011.7
20260507100046 60 317 3.0 8.0 0.05 1.49 0.39 85 1011.6
20260507095538 60 300 3.0 5.0 0.05 1.49 0.39 85 1010.9
20260507095038 60 332 2.0 5.0 0.05 1.49 0.39 84 1010.5
20260507094550 60 11 3.0 5.0 0.05 1.49 0.39 85 1010.2
20260507094038 60 0 1.0 7.0 0.05 1.49 0.39 85 1009.9
20260507093538 60 69 3.0 8.0 0.04 1.48 0.38 85 1010.2
20260507093052 60 13 3.0 8.0 0.04 1.48 0.38 85 1010.4
20260507092541 60 360 4.0 12.0 0.05 1.48 0.38 85 1010.8
20260507092037 60 5 4.0 12.0 0.01 1.44 0.34 85 1011.0
20260507091545 61 288 6.0 11.0 0.01 1.44 0.34 85 1011.4
20260507091038 61 311 1.0 4.0 0.01 1.44 0.34 85 1009.9
20260507090538 61 19 2.0 4.0 0.01 1.44 0.34 85 1009.9
20260507090044 61 20 1.0 4.0 0.01 1.44 0.34 85 1009.8
20260507085538 60 73 1.0 2.0 0.01 1.44 0.34 85 1009.8
20260507085039 60 84 0.0 2.0 0.01 1.44 0.34 85 1009.9
20260507084551 60 0 0.0 4.0 0.01 1.44 0.34 85 1010.1
20260507084039 61 0 1.0 6.0 0.01 1.44 0.34 85 1010.3
20260507083538 61 5 2.0 7.0 0.01 1.44 0.34 85 1010.6
20260507083049 61 314 4.0 7.0 0.00 1.43 0.33 85 1011.1
20260507082540 61 279 3.0 7.0 0.01 1.43 0.33 85 1011.0
20260507082039 61 17 2.0 4.0 0.01 1.43 0.33 85 1010.3
20260507081547 61 325 1.0 3.0 0.01 1.43 0.33 85 1010.1
20260507081038 61 48 1.0 3.0 0.01 1.43 0.33 85 1009.7
20260507080538 61 0 0.0 2.0 0.01 1.43 0.33 85 1009.8
20260507080100 61 0 0.0 2.0 0.01 1.43 0.33 85 1009.9
20260507075538 61 0 0.0 3.0 0.01 1.43 0.33 85 1009.9
20260507075038 61 0 1.0 3.0 0.01 1.43 0.33 85 1010.1
20260507074545 61 79 1.0 3.0 0.01 1.43 0.33 85 1010.4
20260507074038 61 43 0.0 3.0 0.01 1.43 0.33 85 1010.6
20260507073538 61 35 1.0 3.0 0.02 1.43 0.33 85 1010.7
20260507073050 61 49 1.0 3.0 0.04 1.43 0.33 85 1010.6
20260507072539 61 45 1.0 3.0 0.04 1.42 0.32 85 1010.7
20260507072039 61 66 0.0 2.0 0.06 1.42 0.32 85 1010.7
20260507071603 61 66 0.0 2.0 0.06 1.42 0.32 85 1010.8
20260507071039 61 66 0.0 2.0 0.06 1.42 0.32 85 1010.9
20260507070539 61 0 0.0 2.0 0.06 1.42 0.32 85 1010.7
20260507070049 61 66 1.0 2.0 0.06 1.42 0.32 85 1010.8
20260507065538 61 0 0.0 6.0 0.07 1.42 0.32 85 1010.8
20260507065038 61 244 2.0 6.0 0.08 1.42 0.32 85 1011.2
20260507064543 61 295 1.0 6.0 0.09 1.42 0.32 85 1011.1
20260507064038 61 0 2.0 6.0 0.09 1.42 0.32 85 1010.9
20260507063538 61 272 0.0 9.0 0.08 1.41 0.31 85 1011.5
20260507063047 61 202 2.0 12.0 0.06 1.39 0.29 85 1011.6
20260507062538 62 252 1.0 12.0 0.06 1.38 0.28 85 1012.2
20260507062038 62 281 9.0 12.0 0.06 1.36 0.26 85 1012.1
20260507061555 62 263 4.0 8.0 0.07 1.36 0.26 84 1011.1
20260507061038 61 267 2.0 4.0 0.08 1.36 0.26 85 1010.2
20260507060538 61 115 2.0 4.0 0.10 1.36 0.26 85 1010.7
20260507060046 62 335 1.0 4.0 0.10 1.36 0.26 85 1011.4
20260507055542 62 0 1.0 5.0 0.09 1.35 0.25 85 1011.6
20260507055039 62 34 2.0 8.0 0.07 1.33 0.23 85 1011.5
20260507054542 62 247 4.0 8.0 0.07 1.33 0.23 85 1012.4
20260507054038 62 290 2.0 5.0 0.08 1.33 0.23 84 1011.8
20260507053542 62 0 0.0 3.0 0.08 1.33 0.23 85 1011.5
20260507053112 62 84 0.0 8.0 0.09 1.33 0.23 85 1011.9
20260507052538 62 71 1.0 8.0 0.15 1.32 0.22 85 1012.0
20260507052038 62 265 2.0 6.0 0.18 1.30 0.20 85 1012.4
20260507051548 61 238 2.0 5.0 0.19 1.29 0.19 85 1012.2
20260507051038 62 144 1.0 5.0 0.18 1.28 0.18 85 1011.9
20260507050538 61 29 1.0 5.0 0.16 1.26 0.16 85 1012.3
20260507050046 62 103 1.0 5.0 0.16 1.26 0.16 85 1012.2
20260507045544 62 34 3.0 5.0 0.17 1.26 0.16 85 1012.2
20260507045058 61 163 0.0 2.0 0.17 1.26 0.16 85 1012.1
20260507044549 61 0 1.0 3.0 0.18 1.26 0.16 85 1012.6
20260507044038 62 53 1.0 3.0 0.20 1.25 0.15 85 1012.5
20260507043539 62 0 1.0 6.0 0.23 1.25 0.15 85 1012.9
20260507043050 62 293 1.0 6.0 0.22 1.24 0.14 85 1012.8
20260507042539 62 101 1.0 5.0 0.14 1.16 0.06 85 1012.7
20260507042038 62 0 1.0 5.0 0.10 1.12 0.02 85 1012.9
20260507041547 62 45 3.0 5.0 0.08 1.10 0.00 85 1013.2
20260507041041 62 59 1.0 5.0 0.08 1.10 0.00 85 1013.0
20260507040539 62 21 3.0 5.0 0.08 1.10 0.00 85 1013.0
20260507040052 62 51 1.0 5.0 0.08 1.10 0.00 85 1012.8
20260507035538 62 30 4.0 5.0 0.07 1.09 1.09 85 1013.4
20260507035038 62 9 0.0 5.0 0.07 1.09 1.09 85 1013.4
20260507034549 62 349 2.0 9.0 0.06 1.08 1.08 85 1013.2
20260507034038 62 236 3.0 9.0 0.02 1.04 1.04 85 1013.0
20260507033538 62 326 4.0 6.0 0.00 1.02 1.02 85 1013.3
20260507033050 62 10 2.0 4.0 0.00 1.02 1.02 85 1012.3
20260507032539 62 0 0.0 2.0 0.00 1.02 1.02 85 1012.3
20260507032038 62 0 0.0 2.0 0.00 1.02 1.02 85 1012.1
20260507031549 62 53 0.0 3.0 0.00 1.02 1.02 85 1011.8
20260507031043 62 53 1.0 3.0 0.00 1.02 1.02 85 1012.0
20260507030540 62 35 0.0 2.0 0.00 1.02 1.02 85 1012.2
20260507030049 62 0 0.0 3.0 0.00 1.02 1.02 85 1012.4
20260507025540 62 0 0.0 3.0 0.00 1.02 1.02 85 1012.4
20260507025042 62 321 1.0 2.0 0.00 1.02 1.02 85 1012.4
20260507024559 62 0 1.0 2.0 0.00 1.02 1.02 85 1012.2
20260507024040 62 55 0.0 2.0 0.00 1.02 1.02 85 1012.5
20260507023540 62 55 0.0 2.0 0.00 1.02 1.02 85 1012.5
20260507023047 62 0 0.0 1.0 0.00 1.02 1.02 85 1012.5
20260507022539 62 0 0.0 2.0 0.00 1.02 1.02 85 1012.5
20260507022040 62 0 0.0 2.0 0.00 1.02 1.02 85 1012.6
20260507021549 62 55 0.0 2.0 0.00 1.02 1.02 85 1012.6
20260507021041 62 0 0.0 2.0 0.00 1.02 1.02 85 1012.5
20260507020541 62 0 1.0 2.0 0.00 1.02 1.02 85 1012.4
20260507020047 62 0 0.0 1.0 0.01 1.02 1.02 85 1012.5
20260507015540 62 0 0.0 1.0 0.01 1.02 1.02 85 1012.5
20260507015041 62 0 0.0 1.0 0.01 1.02 1.02 85 1012.5
20260507014601 62 0 0.0 1.0 0.01 1.02 1.02 85 1012.5
20260507014041 62 89 0.0 3.0 0.02 1.02 1.02 85 1012.5
20260507013540 62 0 1.0 3.0 0.02 1.02 1.02 85 1012.4
20260507013048 62 28 1.0 4.0 0.04 1.02 1.02 85 1012.7
20260507012540 62 5 2.0 4.0 0.04 1.02 1.02 85 1012.7
20260507012040 62 0 0.0 4.0 0.04 1.02 1.02 85 1012.7
20260507011551 62 88 2.0 4.0 0.04 1.02 1.02 85 1012.5
20260507011042 62 27 1.0 4.0 0.04 1.02 1.02 85 1012.9
20260507010540 62 300 0.0 2.0 0.04 1.02 1.02 85 1012.8
20260507005540 62 136 1.0 3.0 0.03 1.01 1.01 85 1012.9
20260507005039 62 38 0.0 4.0 0.03 1.01 1.01 85 1012.9
20260507004611 62 102 1.0 4.0 0.03 1.01 1.01 85 1013.2
20260507004041 62 321 2.0 4.0 0.02 1.00 1.00 85 1014.1
20260507003541 62 70 1.0 4.0 0.02 0.99 0.99 85 1013.8
20260507003054 62 0 1.0 4.0 0.02 0.98 0.98 85 1013.6
20260507002540 62 98 2.0 4.0 0.10 0.98 0.98 85 1012.7
20260507002040 62 79 0.0 3.0 0.14 0.98 0.98 85 1012.9
20260507001550 62 79 1.0 3.0 0.15 0.98 0.98 85 1013.0
20260507001040 62 0 0.0 3.0 0.15 0.98 0.98 85 1013.2
20260507000538 63 79 1.0 3.0 0.16 0.98 0.98 85 1013.1
20260507000054 63 0 0.0 3.0 0.16 0.98 0.98 85 1013.6
20260506235542 63 0 0.0 3.0 0.16 0.98 0.98 85 1013.5
20260506235040 63 44 1.0 4.0 0.16 0.98 0.98 85 1013.2
20260506234548 62 28 2.0 4.0 0.17 0.98 0.98 85 1013.0
20260506234042 62 30 1.0 9.0 0.17 0.98 0.98 85 1013.2
20260506233542 63 212 2.0 9.0 0.16 0.97 0.97 85 1013.4
20260506233055 63 259 5.0 15.0 0.15 0.96 0.96 85 1013.2
20260506232538 63 355 10.0 15.0 0.08 0.88 0.88 85 1012.9
20260506232039 63 292 5.0 9.0 0.03 0.83 0.83 85 1012.9
20260506231550 63 17 3.0 7.0 0.05 0.83 0.83 85 1011.8
20260506231039 63 0 0.0 7.0 0.05 0.83 0.83 86 1011.8
20260506230538 63 360 2.0 7.0 0.04 0.82 0.82 85 1011.8
20260506230056 63 45 2.0 6.0 0.06 0.82 0.82 86 1011.6
20260506225543 63 105 3.0 6.0 0.08 0.82 0.82 85 1011.2
20260506225039 63 342 2.0 4.0 0.10 0.82 0.82 85 1012.8
20260506224551 63 53 2.0 4.0 0.18 0.81 0.81 86 1012.3
20260506224039 63 30 0.0 2.0 0.18 0.81 0.81 85 1012.6
20260506223539 63 191 0.0 2.0 0.18 0.81 0.81 86 1012.8
20260506223048 63 0 0.0 2.0 0.19 0.81 0.81 86 1012.6
20260506222539 63 0 0.0 2.0 0.18 0.80 0.80 86 1012.3
20260506222039 63 103 1.0 4.0 0.18 0.80 0.80 86 1012.3
20260506221548 63 0 0.0 4.0 0.16 0.78 0.78 86 1012.4
20260506221038 63 66 1.0 3.0 0.16 0.78 0.78 86 1012.4
20260506220539 63 0 0.0 4.0 0.16 0.78 0.78 86 1012.4
20260506220050 63 53 1.0 4.0 0.14 0.76 0.76 86 1012.4
20260506215538 63 19 1.0 3.0 0.13 0.74 0.74 86 1012.5
20260506215041 63 132 1.0 3.0 0.12 0.70 0.70 86 1012.6
20260506214602 63 47 1.0 3.0 0.07 0.63 0.63 86 1012.8
20260506214039 63 61 0.0 6.0 0.07 0.63 0.63 86 1012.4
20260506213541 63 0 1.0 6.0 0.08 0.63 0.63 86 1012.5
20260506213048 63 313 2.0 6.0 0.08 0.62 0.62 86 1012.4
20260506212538 63 0 1.0 6.0 0.10 0.62 0.62 86 1012.4
20260506212038 63 258 3.0 6.0 0.18 0.62 0.62 86 1012.5
20260506211548 63 0 0.0 3.0 0.31 0.62 0.62 86 1012.4
20260506211038 63 246 2.0 3.0 0.32 0.62 0.62 86 1012.5
20260506210537 63 192 1.0 4.0 0.32 0.62 0.62 86 1012.5
20260506210055 63 0 1.0 4.0 0.32 0.62 0.62 86 1012.4
20260506205538 63 113 2.0 4.0 0.30 0.60 0.60 86 1012.3
20260506205038 63 0 0.0 6.0 0.28 0.58 0.58 86 1012.5
20260506204552 63 342 2.0 7.0 0.26 0.56 0.56 86 1012.8
20260506204038 63 68 2.0 8.0 0.26 0.56 0.56 86 1012.4
20260506203542 63 20 2.0 12.0 0.25 0.55 0.55 86 1012.4
20260506203052 63 293 3.0 13.0 0.24 0.54 0.54 87 1012.7
20260506202539 64 336 6.0 13.0 0.22 0.52 0.52 87 1012.9
20260506202039 65 46 5.0 12.0 0.13 0.43 0.43 86 1013.4
20260506201544 66 352 7.0 10.0 0.01 0.31 0.31 86 1013.1
20260506201038 66 26 6.0 10.0 0.00 0.30 0.30 86 1012.3
20260506200539 66 63 5.0 9.0 0.00 0.30 0.30 86 1012.4
20260506200101 66 30 4.0 6.0 0.00 0.30 0.30 86 1012.4
20260506195538 66 55 2.0 5.0 0.00 0.30 0.30 86 1012.5
20260506195040 67 30 1.0 5.0 0.00 0.30 0.30 86 1012.7
20260506194556 67 63 2.0 5.0 0.00 0.30 0.30 86 1012.7
20260506194041 67 38 3.0 5.0 0.00 0.30 0.30 86 1012.8
20260506193538 67 0 1.0 3.0 0.00 0.30 0.30 86 1012.7
20260506193052 67 69 0.0 3.0 0.00 0.30 0.30 86 1012.7
20260506192538 67 81 1.0 3.0 0.00 0.30 0.30 86 1012.8
20260506192044 67 58 1.0 3.0 0.00 0.30 0.30 86 1012.8
20260506191559 67 34 0.0 4.0 0.00 0.30 0.30 86 1012.8
20260506191039 67 34 2.0 4.0 0.00 0.30 0.30 86 1012.9
20260506190538 67 340 0.0 4.0 0.00 0.30 0.30 86 1013.1
20260506190043 67 0 2.0 4.0 0.00 0.30 0.30 86 1013.1
20260506185538 67 43 2.0 4.0 0.00 0.30 0.30 86 1013.5
20260506185038 67 360 2.0 8.0 0.00 0.30 0.30 86 1013.4
20260506184543 67 0 1.0 9.0 0.00 0.30 0.30 86 1013.6
20260506184038 67 265 2.0 9.0 0.00 0.30 0.30 86 1013.4
20260506183539 67 270 4.0 11.0 0.00 0.30 0.30 86 1013.5
20260506183051 67 190 4.0 11.0 0.00 0.30 0.30 86 1013.5
20260506182538 67 139 3.0 11.0 0.00 0.30 0.30 86 1013.6
20260506182038 67 124 4.0 11.0 0.00 0.30 0.30 86 1014.0
20260506181556 67 236 5.0 13.0 0.00 0.30 0.30 86 1014.1
20260506181038 67 254 4.0 13.0 0.00 0.30 0.30 86 1014.2
20260506180539 66 255 5.0 13.0 0.00 0.30 0.30 86 1014.0
20260506180105 66 219 8.0 13.0 0.00 0.30 0.30 86 1013.9
20260506175538 66 243 8.0 12.0 0.00 0.30 0.30 86 1014.0
20260506175038 66 290 8.0 15.0 0.00 0.30 0.30 86 1014.0
20260506174546 66 267 4.0 18.0 0.00 0.30 0.30 86 1013.9
20260506174038 66 217 7.0 18.0 0.00 0.30 0.30 86 1014.0
20260506173538 66 277 12.0 18.0 0.00 0.30 0.30 86 1014.0
20260506173054 66 251 10.0 14.0 0.00 0.30 0.30 86 1014.0
20260506172538 66 252 8.0 12.0 0.00 0.30 0.30 86 1014.0
20260506172038 65 346 1.0 10.0 0.00 0.30 0.30 86 1013.9
20260506171547 65 11 4.0 10.0 0.00 0.30 0.30 86 1013.8
20260506171041 65 326 4.0 11.0 0.00 0.30 0.30 86 1013.7
20260506170539 65 259 4.0 11.0 0.00 0.30 0.30 86 1013.7
20260506170050 65 205 1.0 11.0 0.00 0.30 0.30 86 1013.7
20260506165538 64 0 2.0 12.0 0.00 0.30 0.30 86 1013.6
20260506165039 64 229 3.0 12.0 0.00 0.30 0.30 86 1013.7
20260506164544 64 231 3.0 8.0 0.00 0.30 0.30 86 1013.6
20260506164040 65 109 4.0 12.0 0.00 0.30 0.30 87 1013.7
20260506163538 65 225 3.0 12.0 0.00 0.30 0.30 86 1013.8
20260506163053 65 137 3.0 13.0 0.01 0.30 0.30 86 1013.8
20260506162538 65 215 6.0 14.0 0.01 0.30 0.30 86 1014.3
20260506162041 65 242 5.0 14.0 0.01 0.30 0.30 86 1014.6
20260506161555 65 239 3.0 8.0 0.02 0.30 0.30 87 1014.5
20260506161039 64 211 3.0 5.0 0.06 0.30 0.30 87 1014.5
20260506160539 64 254 1.0 4.0 0.07 0.30 0.30 86 1014.2
20260506160051 64 0 1.0 4.0 0.07 0.30 0.30 87 1013.7
20260506155541 64 91 0.0 8.0 0.07 0.30 0.30 87 1013.8
20260506155038 64 235 2.0 9.0 0.08 0.30 0.30 87 1013.9
20260506154549 63 259 5.0 12.0 0.09 0.30 0.30 87 1014.2
20260506154039 63 258 4.0 12.0 0.09 0.30 0.30 87 1014.3
20260506153539 63 231 6.0 11.0 0.16 0.30 0.30 86 1014.9
20260506153049 63 119 3.0 13.0 0.17 0.29 0.29 87 1014.3
20260506152538 63 232 6.0 14.0 0.29 0.29 0.29 87 1015.0
20260506152041 63 255 8.0 17.0 0.29 0.29 0.29 86 1015.2
20260506151546 63 244 8.0 17.0 0.28 0.28 0.28 87 1015.2
20260506151038 63 243 12.0 17.0 0.24 0.24 0.24 87 1015.3
20260506150538 63 255 7.0 14.0 0.23 0.23 0.23 87 1014.8
20260506150046 63 235 7.0 17.0 0.23 0.23 0.23 87 1014.8
20260506145539 63 248 8.0 17.0 0.23 0.23 0.23 87 1014.6
20260506145039 63 246 10.0 17.0 0.22 0.22 0.22 87 1014.8
20260506144602 63 244 10.0 18.0 0.21 0.21 0.21 87 1014.6
20260506144038 63 256 6.0 18.0 0.21 0.21 0.21 87 1014.3
20260506143539 63 226 10.0 18.0 0.14 0.14 0.14 86 1014.6
20260506143050 64 225 8.0 16.0 0.12 0.12 0.12 86 1014.3
20260506142539 64 252 9.0 15.0 0.00 0.00 0.00 85 1014.3
20260506142038 64 253 6.0 15.0 0.00 0.00 0.00 85 1014.3
20260506141544 64 304 7.0 16.0 0.00 0.00 0.00 84 1014.1
20260506141039 65 254 10.0 16.0 0.00 0.00 0.00 84 1014.0
20260506140538 65 257 10.0 16.0 0.00 0.00 0.00 84 1013.8
20260506140043 65 239 9.0 15.0 0.00 0.00 0.00 84 1013.7
20260506135538 65 235 10.0 15.0 0.00 0.00 0.00 83 1013.6
20260506135039 65 237 9.0 15.0 0.00 0.00 0.00 83 1013.4
20260506134554 65 221 8.0 16.0 0.00 0.00 0.00 82 1013.2
20260506134038 65 247 10.0 16.0 0.00 0.00 0.00 82 1013.5
20260506133539 65 254 7.0 15.0 0.00 0.00 0.00 81 1013.7
20260506133053 65 251 9.0 15.0 0.00 0.00 0.00 81 1013.7
20260506132539 65 235 6.0 15.0 0.00 0.00 0.00 81 1013.4
20260506132039 65 267 4.0 11.0 0.00 0.00 0.00 81 1013.4
20260506131552 65 254 4.0 8.0 0.00 0.00 0.00 80 1013.5
20260506131038 65 322 1.0 4.0 0.00 0.00 0.00 80 1013.4
20260506130539 65 0 1.0 6.0 0.00 0.00 0.00 79 1013.1
20260506130052 65 0 2.0 6.0 0.00 0.00 0.00 80 1013.0
20260506125538 65 328 1.0 4.0 0.00 0.00 0.00 79 1013.1
20260506125041 65 280 1.0 6.0 0.00 0.00 0.00 79 1013.0